Location: Godiavel Galaoual
(15.2485°N, 12.6604°W)
Time: 00:55:46
(UTC+00:00)

Explorer 7 - Pass Details

Date: 18 June 2021
Orbit: 484 x 676 km, 50.3° (Epoch: 29 July)

Event Time Altitude Azimuth Distance (km) Brightness Sun altitude
Rises 18:40:06 0° 179° (S) 2,925 10.3 8.6°
Reaches altitude 10° 18:43:32 10° 153° (SSE) 2,052 9.3 7.9°
Maximum altitude 18:45:50 13° 124° (ESE) 1,847 8.9 7.4°
Drops below altitude 10° 18:48:10 10° 95° (E) 2,086 9.2 6.8°
Sets 18:51:42 0° 69° (ENE) 3,013 10.1 6.1°
